User: anonymous   Login
Location: Ostrava
(49.8330°N, 18.2830°E)
Time: 09:09:09
(UTC+01:00)
Language:

Cosmos 1400 Rocket - Orbit

View from above orbital plane
View from above orbital plane
View from above satellite
View from above satellite

Ground track
Ground track

The orbit data is extracted from the following two-line orbital elements,

1 13403U 82079B   16044.76106247  .00000842  00000-0  55313-4 0  9990
2 13403  81.1691 109.7126 0035897  90.9240 269.6096 15.05994654823044
Epoch (UTC): 13 February 2016 18:15:55
Eccentricity: 0.0035897
inclination: 81.1691°
perigee height: 523 km
apogee height: 573 km
right ascension of ascending node: 109.7126°
argument of perigee: 90.9240°
revolutions per day: 15.05994654
mean anomaly at epoch: 269.6096°
orbit number at epoch: 82304

The dashed part of the orbit path shows where the satellite is in the earth's shadow,  

DLR